Lid_Strength_Index
6 6 6 6 6 6 6 6 6 6 6 6 6 5 5 4 5 6 7 5 4 2 4 7 7 4 5 6 4 5 9 11 10 10 8 5 6 4 4 6 5 4 4 2 2
6 6 6 6 6 6 6 6 6 6 6 6 6 5 5 4 6 7 2 1 1 3 6 7 8 5 7 7 7 8 9 10 8 7 8 6 5 5 6 6 6 5 3 3 2
6 6 6 6 6 6 6 6 7 6 6 6 6 5 4 4 7 6 1 1 1 1 4 4 6 6 8 7 8 8 9 7 7 6 6 7 6 4 6 7 5 5 4 3 3
6 7 7 7 6 7 7 7 7 6 6 6 5 5 4 5 12 5 2 2 1 2 4 4 5 8 9 9 7 9 8 7 7 7 7 7 6 6 6 6 4 4 3 3 4
8 8 7 7 7 7 7 7 7 6 6 5 5 4 5 7 7 4 2 3 4 3 3 4 5 6 9 8 8 8 8 8 7 7 7 6 8 7 7 5 4 4 4 4 4
8 8 8 7 7 7 7 7 6 6 6 5 4 4 6 10 5 5 5 5 6 6 4 4 5 4 6 7 8 7 7 8 8 8 8 9 8 8 7 5 5 5 5 4 4
8 7 7 7 7 7 7 7 6 6 5 5 4 4 6 7 4 3 4 5 5 6 7 4 3 5 5 6 5 7 9 9 9 9 9 8 11 10 7 5 5 5 4 4 4
7 7 7 7 7 7 7 6 6 5 5 4 3 4 7 3 3 4 4 4 3 3 5 4 4 5 5 4 6 8 8 11 8 8 8 7 12 8 6 7 6 5 4 4 4
7 8 7 7 7 6 6 6 5 5 4 3 4 4 8 4 6 2 2 4 3 3 3 3 5 7 6 8 9 8 11 11 10 8 9 8 12 8 6 7 8 6 4 4 4
8 7 7 7 6 6 6 6 5 5 3 3 3 7 5 7 6 5 4 5 5 5 5 5 7 9 9 10 13 11 11 10 10 9 9 10 10 8 6 6 6 7 5 5 4
8 7 7 7 7 6 7 6 8 8 5 9 8 7 6 6 5 5 4 5 6 8 9 6 9 12 10 9 9 9 9 10 9 8 8 9 11 9 6 6 8 8 7 6 5
8 8 7 7 7 6 6 8 9 8 12 8 8 7 6 6 8 5 4 7 8 11 9 8 10 8 7 8 8 9 10 10 8 8 9 10 11 9 9 7 7 8 6 6 5
8 8 7 7 7 7 7 8 5 5 11 9 7 8 7 6 7 7 5 6 8 9 9 10 9 6 7 8 9 9 10 10 10 9 9 10 12 10 7 6 6 7 5 5 5
8 8 7 7 8 7 6 6 4 3 12 11 10 8 6 6 9 5 4 6 8 10 8 8 7 8 8 9 9 11 8 9 9 11 14 9 15 11 8 7 7 6 5 5 4
8 8 7 7 7 8 7 5 5 5 17 10 9 4 5 8 8 8 4 6 10 9 7 9 8 9 9 9 8 10 7 9 9 10 12 12 13 11 9 9 8 6 5 4 4
7 7 7 6 5 6 5 5 5 12 17 11 9 9 10 8 8 7 7 6 6 7 7 8 6 7 8 7 7 7 8 9 9 11 15 12 12 12 10 9 7 7 6 5 5
7 7 7 6 7 4 4 6 12 15 10 12 11 10 10 11 10 9 10 10 11 12 12 9 9 7 6 9 7 8 11 17 19 17 18 11 12 11 9 8 7 7 6 5 5
7 7 5 5 4 3 4 9 15 12 12 10 11 11 12 10 9 9 9 10 8 9 13 15 15 9 7 8 11 11 11 16 20 19 16 11 14 12 7 6 6 6 6 5 5
7 5 4 4 2 2 7 13 13 13 11 12 12 13 12 10 9 9 9 10 8 9 14 14 13 7 7 7 9 11 14 10 15 13 18 16 11 9 8 8 7 6 6 6 6
7 6 6 2 2 4 9 12 12 11 11 11 15 12 14 12 12 11 10 8 8 8 7 11 16 9 8 7 8 10 8 14 13 21 22 18 15 16 12 9 7 7 7 6 5
6 7 4 3 3 7 12 12 11 10 10 12 13 13 12 12 10 11 11 8 8 8 7 9 12 12 10 12 12 10 13 11 12 14 19 18 17 11 11 9 8 7 6 6 6
5 8 4 3 9 9 11 11 10 10 9 10 10 10 10 9 10 10 11 10 7 7 11 9 13 15 14 9 8 8 10 12 16 16 13 16 18 9 8 8 7 7 6 6 6
6 7 4 3 11 11 10 11 10 10 10 9 9 7 7 9 11 10 10 7 7 8 11 10 13 18 16 12 9 10 9 10 12 12 17 18 18 9 8 7 7 7 6 6 7
5 9 7 6 8 10 12 11 11 8 8 7 7 6 8 10 8 10 9 7 7 8 7 9 12 15 18 15 10 12 10 11 12 15 15 15 15 11 9 8 8 7 6 6 8
5 8 7 10 10 10 10 10 10 10 7 7 8 8 9 11 10 10 9 10 9 8 9 10 14 14 13 13 11 13 13 13 14 12 14 12 12 10 9 9 8 8 8 8 9
8 7 8 9 9 10 9 10 10 9 9 9 9 8 8 11 10 11 10 10 11 9 10 10 14 13 15 12 11 14 13 12 10 10 11 10 11 9 9 10 10 11 11 12 12
4 5 6 9 9 9 9 9 9 7 7 7 7 8 9 9 7 8 7 8 8 10 11 12 13 12 15 11 11 14 11 10 11 10 11 14 11 10 11 13 14 14 13 14 14